Custer, SD

8:54 PM MDT on March 23, 2017 (GMT -0600)
Custer County

Weather History for KCUT - May, 2013

Change the Weather History Date:

Sunday, May 12, 2013

  Actual Average Record
Temperature  
Mean Temperature 51 °F 47 °F  
Max Temperature 69 °F 59 °F 81 °F (2007)
Min Temperature 32 °F 35 °F 9 °F (1953)
Degree Days  
Heating Degree Days 14 18  
Month to date heating degree days 264 233  
Since 1 July heating degree days 7868 7883  
Cooling Degree Days 0 0  
Month to date cooling degree days 0 0  
Year to date cooling degree days 0 0  
Moisture  
Dew Point 32 °F    
Average Humidity 52    
Maximum Humidity 75    
Minimum Humidity 29    
Precipitation  
Precipitation 0.00 in 0.09 in 1.42 in (1991)
Month to date precipitation 0.11 1.12  
Year to date precipitation 5.41 5.11  
Sea Level Pressure  
Sea Level Pressure 30.05 in    
Wind  
Wind Speed 4 mph (South)    
Max Wind Speed 13 mph    
Max Gust Speed 21 mph    
Visibility 10 miles    
Events      
T = Trace of Precipitation, MM = Missing Value Source: NWS Daily Summary

Daily Weather History Graph

Daily Weather History Graph

Search for Another Location

Airport or City:

Trip Planner

Search our weather history database for the weather conditions in past years. The results will help you decide how hot, cold, wet, or windy it might be!

Date:

Astronomy

May. 12, 2013 Rise Set
Actual Time 5:32 AM MDT 8:10 PM MDT
Civil Twilight 4:59 AM MDT 8:43 PM MDT
Nautical Twilight 4:18 AM MDT 9:24 PM MDT
Astronomical Twilight 3:31 AM MDT 10:11 PM MDT
Moon 7:28 AM MDT (5/12) 10:39 PM MDT (5/12)
Length of Visible Light 15h 43m
Length of Day
14h 37m
Waxing Crescent, 7% of the Moon is Illuminated
May 12
Waxing Crescent
May 17
First Quarter
May 24
Full
May 31
Last Quarter
Jun 8
New

Hourly Weather History & Observations

Time (MDT) Temp. Windchill Dew Point Humidity Pressure Visibility Wind Dir Wind Speed Gust Speed Precip Events Conditions
12:53 AM 35.1 °F 31.0 °F 27.0 °F 72% 30.19 in 10.0 mi WNW 4.6 mph - N/A   Clear
1:53 AM 33.1 °F - 27.0 °F 78% 30.18 in 10.0 mi Calm Calm - N/A   Partly Cloudy
2:53 AM 34.0 °F 31.0 °F 26.1 °F 73% 30.16 in 10.0 mi WNW 3.5 mph - N/A   Scattered Clouds
3:53 AM 37.9 °F 33.5 °F 27.0 °F 65% 30.13 in 10.0 mi WNW 5.8 mph - N/A   Clear
4:53 AM 43.0 °F - 28.0 °F 56% 30.09 in 10.0 mi Calm Calm - N/A   Clear
5:53 AM 43.0 °F - 28.9 °F 58% 30.09 in 10.0 mi Calm Calm - N/A   Clear
6:53 AM 46.9 °F - 30.9 °F 54% 30.09 in 10.0 mi Calm Calm - N/A   Clear
7:53 AM 55.9 °F - 33.1 °F 42% 30.07 in 10.0 mi Calm Calm - N/A   Clear
8:53 AM 60.1 °F - 34.0 °F 38% 30.07 in 10.0 mi Calm Calm - N/A   Clear
9:53 AM 64.0 °F - 33.1 °F 31% 30.06 in 10.0 mi Variable 4.6 mph - N/A   Partly Cloudy
10:53 AM 64.0 °F - 35.1 °F 34% 30.06 in 10.0 mi Variable 4.6 mph 16.1 mph N/A   Mostly Cloudy
11:53 AM 62.1 °F - 33.1 °F 34% 30.09 in 10.0 mi Variable 4.6 mph - N/A   Mostly Cloudy
12:53 PM 62.1 °F - 33.1 °F 34% 30.07 in 10.0 mi Variable 4.6 mph - N/A   Overcast
1:53 PM 66.0 °F - 34.0 °F 30% 30.05 in 10.0 mi SSE 8.1 mph - N/A   Mostly Cloudy
2:53 PM 66.9 °F - 34.0 °F 30% 30.03 in 10.0 mi Variable 6.9 mph - N/A   Scattered Clouds
3:53 PM 66.0 °F - 34.0 °F 30% 30.01 in 10.0 mi East 8.1 mph - N/A   Partly Cloudy
4:53 PM 66.9 °F - 35.1 °F 31% 29.99 in 10.0 mi ESE 8.1 mph - N/A   Partly Cloudy
5:53 PM 66.0 °F - 35.1 °F 32% 29.98 in 10.0 mi SE 8.1 mph - N/A   Clear
6:53 PM 64.0 °F - 35.1 °F 34% 29.98 in 10.0 mi SSE 6.9 mph - N/A   Clear
7:53 PM 60.1 °F - 35.1 °F 39% 29.96 in 10.0 mi Calm Calm - N/A   Clear
8:53 PM 55.0 °F - 36.0 °F 49% 29.96 in 10.0 mi Calm Calm - N/A   Clear
9:53 PM 53.1 °F - 37.0 °F 55% 29.97 in 10.0 mi Calm Calm - N/A   Clear
10:53 PM 55.0 °F - 34.0 °F 45% 29.95 in 10.0 mi Calm Calm - N/A   Clear
11:53 PM 53.1 °F - 34.0 °F 48% 29.96 in 10.0 mi West 4.6 mph - N/A   Clear